Weather History for El Paso, TX

Change the Weather History Date:

Monday, September 2, 2013

  Actual Average Record
Temperature  
Mean Temperature 85 °F 79 °F  
Max Temperature 95 °F 91 °F 100 °F (2010)
Min Temperature 74 °F 68 °F 50 °F (1880)
Degree Days  
Heating Degree Days 0 0  
Month to date heating degree days 0 0  
Since 1 July heating degree days 0 0  
Cooling Degree Days 20 14  
Month to date cooling degree days 41 28  
Year to date cooling degree days 2319 1957  
Growing Degree Days 34 (Base 50)    
Moisture  
Dew Point 53 °F    
Average Humidity 35    
Maximum Humidity 46    
Minimum Humidity 23    
Precipitation  
Precipitation T in 0.06 in 1.50 in (1900)
Month to date precipitation T 0.11  
Year to date precipitation 5.30 6.43  
Snow  
Snow 0.00 in - - ()
Month to date snowfall 0.0  
Since 1 July snowfall T  
Since 1 September snowfall 0.0  
Snow Depth 0.00 in    
Sea Level Pressure  
Sea Level Pressure 29.84 in    
Wind  
Wind Speed 9 mph (ENE)    
Max Wind Speed 28 mph    
Max Gust Speed 37 mph    
Visibility 10 miles    
Events Rain , Thunderstorm    
T = Trace of Precipitation, MM = Missing Value Source: NWS Daily Summary

Daily Weather History Graph

Daily Weather History Graph

Search for Another Location

Airport:

Trip Planner

Search our weather history database for the weather conditions in past years. The results will help you decide how hot, cold, wet, or windy it might be!

Date:

Astronomy

Sep. 02, 2013 Rise Set
Actual Time 6:41 AM MDT 7:27 PM MDT
Civil Twilight 6:16 AM MDT 7:52 PM MDT
Nautical Twilight 5:47 AM MDT 8:21 PM MDT
Astronomical Twilight 5:17 AM MDT 8:51 PM MDT
Moon 4:07 AM MDT (9/2) 5:38 PM MDT (9/2)
Length of Visible Light 13h 35m
Length of Day
12h 45m
Waning Crescent, 7% of the Moon is Illuminated
Sep 2
Waning Crescent
Sep 5
New
Sep 12
First Quarter
Sep 19
Full
Sep 26
Last Quarter

Hourly Weather History & Observations

Time (MDT) Temp. Heat Index Dew Point Humidity Pressure Visibility Wind Dir Wind Speed Gust Speed Precip Events Conditions
12:51 AM 82.9 °F - 46.9 °F 28% 29.79 in 10.0 mi Variable 3.5 mph - N/A   Clear
1:51 AM 80.1 °F - 48.0 °F 32% 29.80 in 10.0 mi NE 5.8 mph - N/A   Clear
2:51 AM 80.1 °F - 48.9 °F 34% 29.80 in 10.0 mi ENE 3.5 mph - N/A   Clear
3:51 AM 78.1 °F - 51.1 °F 39% 29.81 in 10.0 mi North 4.6 mph - N/A   Clear
4:51 AM 77.0 °F - 50.0 °F 39% 29.82 in 10.0 mi NNE 6.9 mph - N/A   Clear
5:51 AM 73.9 °F - 51.1 °F 45% 29.85 in 10.0 mi NNW 8.1 mph - N/A   Clear
6:51 AM 73.9 °F - 51.1 °F 45% 29.86 in 10.0 mi North 6.9 mph - N/A   Partly Cloudy
7:51 AM 75.9 °F - 53.1 °F 45% 29.88 in 10.0 mi NNW 9.2 mph - N/A   Scattered Clouds
8:51 AM 81.0 °F 81.0 °F 57.0 °F 44% 29.88 in 10.0 mi NNE 12.7 mph - N/A   Partly Cloudy
9:51 AM 82.9 °F 82.4 °F 57.0 °F 41% 29.90 in 10.0 mi NE 6.9 mph - N/A   Clear
10:51 AM 87.1 °F 85.3 °F 55.0 °F 33% 29.90 in 10.0 mi East 9.2 mph - N/A   Partly Cloudy
11:51 AM 90.0 °F 87.7 °F 54.0 °F 29% 29.87 in 10.0 mi SE 10.4 mph 18.4 mph N/A   Partly Cloudy
12:51 PM 91.9 °F 89.5 °F 53.1 °F 27% 29.85 in 10.0 mi SE 12.7 mph 23.0 mph N/A   Partly Cloudy
1:51 PM 93.0 °F - 52.0 °F 25% 29.83 in 10.0 mi SE 5.8 mph 16.1 mph N/A   Partly Cloudy
2:51 PM 93.9 °F - 51.1 °F 23% 29.79 in 10.0 mi ENE 11.5 mph - N/A   Scattered Clouds
3:51 PM 93.9 °F - 51.1 °F 23% 29.77 in 10.0 mi SE 10.4 mph - N/A   Scattered Clouds
4:51 PM 93.9 °F - 50.0 °F 22% 29.75 in 10.0 mi ESE 9.2 mph - N/A   Scattered Clouds
5:51 PM 93.9 °F - 51.1 °F 23% 29.75 in 10.0 mi SE 6.9 mph - N/A   Scattered Clouds
6:26 PM 91.4 °F - 51.8 °F 26% 30.00 in 10.0 mi NE 24.2 mph 28.8 mph N/A   Mostly Cloudy
6:51 PM 87.1 °F 85.7 °F 55.9 °F 35% 29.78 in 10.0 mi NE 20.7 mph - N/A   Mostly Cloudy
7:51 PM 82.0 °F 81.7 °F 57.0 °F 42% 29.82 in 10.0 mi ENE 17.3 mph 25.3 mph N/A Thunderstorm Thunderstorm
8:34 PM 82.4 °F 81.7 °F 55.4 °F 39% 30.06 in 10.0 mi ENE 13.8 mph 20.7 mph N/A   Overcast
8:51 PM 82.9 °F 82.1 °F 55.9 °F 39% 29.84 in 10.0 mi ENE 13.8 mph - N/A   Overcast
9:51 PM 82.9 °F 82.0 °F 55.0 °F 38% 29.85 in 10.0 mi ENE 4.6 mph - 0.00 in Rain Light Rain
10:51 PM 82.9 °F 81.9 °F 54.0 °F 37% 29.86 in 10.0 mi North 4.6 mph - 0.00 in   Overcast
11:51 PM 80.1 °F 80.1 °F 55.0 °F 42% 29.86 in 10.0 mi NNE 4.6 mph - N/A   Mostly Cloudy